Hatteras, NC

9:07 AM EDT on August 20, 2017 (GMT -0400)
Mitchell

Weather History for KHSE - November, 2011

Change the Weather History Date:

Tuesday, November 22, 2011

  Actual Average Record
Temperature  
Mean Temperature 64 °F 56 °F  
Max Temperature 71 °F 62 °F 78 °F (1985)
Min Temperature 56 °F 50 °F 28 °F (1987)
Degree Days  
Heating Degree Days 1 10  
Month to date heating degree days 129 156  
Since 1 July heating degree days 188 231  
Cooling Degree Days 0 1  
Month to date cooling degree days 4 22  
Year to date cooling degree days 2373 1712  
Growing Degree Days 12 (Base 50)    
Moisture  
Dew Point 60 °F    
Average Humidity 88    
Maximum Humidity 100    
Minimum Humidity 76    
Precipitation  
Precipitation 0.00 in 0.15 in 2.89 in (1924)
Month to date precipitation 5.17 3.76  
Year to date precipitation 59.24 52.58  
Snow  
Snow 0.00 in - - ()
Month to date snowfall 0.0  
Since 1 July snowfall 0.0  
Snow Depth 0.00 in    
Sea Level Pressure  
Sea Level Pressure 30.17 in    
Wind  
Wind Speed 5 mph (ENE)    
Max Wind Speed 10 mph    
Max Gust Speed 14 mph    
Visibility 6 miles    
Events      
T = Trace of Precipitation, MM = Missing Value Source: NWS Daily Summary

Daily Weather History Graph

Daily Weather History Graph

Search for Another Location

Airport or City:

Trip Planner

Search our weather history database for the weather conditions in past years. The results will help you decide how hot, cold, wet, or windy it might be!

Date:

Astronomy

Nov. 22, 2011 Rise Set
Actual Time 6:43 AM EST 4:52 PM EST
Civil Twilight 6:16 AM EST 5:20 PM EST
Nautical Twilight 5:45 AM EST 5:51 PM EST
Astronomical Twilight 5:15 AM EST 6:21 PM EST
Moon 3:36 AM EST (11/22) 2:47 PM EST (11/22)
Length of Visible Light 11h 03m
Length of Day
10h 08m
Waning Crescent, 9% of the Moon is Illuminated
Nov 22
Waning Crescent
Nov 25
New
Dec 2
First Quarter
Dec 10
Full
Dec 17
Last Quarter

Hourly Weather History & Observations

Time (EST) Temp. Dew Point Humidity Pressure Visibility Wind Dir Wind Speed Gust Speed Precip Events Conditions
12:51 AM 57.0 °F 57.0 °F 100% 30.20 in 3.0 mi NNE 3.5 mph - N/A   Clear
1:10 AM 57.2 °F 57.2 °F 100% 30.19 in 2.5 mi North 3.5 mph - N/A   Clear
1:28 AM 55.4 °F 55.4 °F 100% 30.20 in 3.0 mi North 3.5 mph - N/A   Clear
1:35 AM 55.4 °F 55.4 °F 100% 30.19 in 2.5 mi North 4.6 mph - N/A   Clear
1:51 AM 55.9 °F 55.9 °F 100% 30.19 in 1.8 mi North 3.5 mph - N/A   Clear
2:02 AM 55.4 °F 55.4 °F 100% 30.19 in 2.0 mi North 4.6 mph - N/A   Clear
2:51 AM 57.0 °F 57.0 °F 100% 30.19 in 2.5 mi NE 4.6 mph - N/A   Clear
3:05 AM 57.2 °F 57.2 °F 100% 30.19 in 3.0 mi NE 4.6 mph - N/A   Clear
3:51 AM 57.0 °F 57.0 °F 100% 30.18 in 5.0 mi NE 4.6 mph - N/A   Clear
4:13 AM 57.2 °F 57.2 °F 100% 30.19 in 2.5 mi NNE 5.8 mph - N/A   Clear
4:26 AM 57.2 °F 57.2 °F 100% 30.19 in 2.0 mi NE 4.6 mph - N/A   Partly Cloudy
4:39 AM 57.2 °F 57.2 °F 100% 30.19 in 1.2 mi NNE 4.6 mph - N/A   Scattered Clouds
4:47 AM 55.4 °F 55.4 °F 100% 30.20 in 1.0 mi NNE 5.8 mph - N/A   Mist
4:51 AM 57.0 °F 57.0 °F 100% 30.19 in 1.5 mi NNE 4.6 mph - N/A   Scattered Clouds
5:06 AM 57.2 °F 57.2 °F 100% 30.20 in 2.5 mi NNE 4.6 mph - N/A   Partly Cloudy
5:17 AM 55.4 °F 55.4 °F 100% 30.19 in 3.0 mi NE 5.8 mph - N/A   Clear
5:51 AM 57.0 °F 57.0 °F 100% 30.19 in 4.0 mi NE 4.6 mph - N/A   Scattered Clouds
6:51 AM 57.0 °F 57.0 °F 100% 30.22 in 2.5 mi NNE 5.8 mph - N/A   Clear
7:02 AM 57.2 °F 57.2 °F 100% 30.22 in 3.0 mi NE 5.8 mph - N/A   Clear
7:51 AM 57.9 °F 57.9 °F 100% 30.22 in 4.0 mi NE 3.5 mph - N/A   Clear
8:51 AM 62.1 °F 62.1 °F 100% 30.23 in 8.0 mi NE 3.5 mph - N/A   Mostly Cloudy
9:51 AM 64.9 °F 63.0 °F 93% 30.25 in 10.0 mi Calm Calm - N/A   Overcast
10:51 AM 69.1 °F 62.1 °F 78% 30.22 in 10.0 mi ESE 6.9 mph - N/A   Clear
11:51 AM 66.9 °F 63.0 °F 87% 30.19 in 10.0 mi SSW 5.8 mph - N/A   Clear
12:51 PM 68.0 °F 63.0 °F 84% 30.17 in 10.0 mi Variable 3.5 mph - N/A   Clear
1:51 PM 68.0 °F 62.1 °F 81% 30.14 in 10.0 mi ESE 4.6 mph - N/A   Clear
2:51 PM 69.1 °F 62.1 °F 78% 30.13 in 10.0 mi SE 4.6 mph - N/A   Clear
3:51 PM 68.0 °F 61.0 °F 78% 30.12 in 10.0 mi SE 6.9 mph - N/A   Clear
4:51 PM 66.0 °F 61.0 °F 84% 30.12 in 10.0 mi SSE 6.9 mph - N/A   Clear
5:51 PM 64.9 °F 63.0 °F 93% 30.12 in 10.0 mi SSE 5.8 mph - N/A   Clear
6:51 PM 66.0 °F 63.0 °F 90% 30.12 in 10.0 mi SSE 6.9 mph - N/A   Partly Cloudy
7:51 PM 66.0 °F 64.0 °F 93% 30.12 in 10.0 mi South 6.9 mph - N/A   Mostly Cloudy
8:13 PM 66.2 °F 64.4 °F 94% 30.11 in 10.0 mi South 5.8 mph - N/A   Scattered Clouds
8:51 PM 66.0 °F 64.0 °F 93% 30.10 in 9.0 mi South 6.9 mph - N/A   Clear
9:51 PM 66.0 °F 64.0 °F 93% 30.09 in 9.0 mi SSW 8.1 mph - N/A   Mostly Cloudy
10:51 PM 64.9 °F 64.0 °F 97% 30.06 in 9.0 mi SW 9.2 mph - N/A   Clear
11:51 PM 66.0 °F 64.0 °F 93% 30.04 in 10.0 mi SSW 8.1 mph - N/A   Clear